WE8L Weather Reports


time (UTC)temp
C
wind
direction
speed
KPH
gust
KPH
rain 1hr
cm
rain 24hr
cm
rain mn
cm
humidity
%
barometer
mb
20260503184940 15 255 6.4 12.9 0.00 0.00 0.00 37 1019.0
20260503184437 15 263 3.2 11.3 0.00 0.00 0.00 37 1019.1
20260503183933 15 245 4.8 9.7 0.00 0.00 0.00 37 1019.4
20260503183429 15 270 3.2 4.8 0.00 0.00 0.00 37 1019.4
20260503182927 15 262 0.0 3.2 0.00 0.00 0.00 38 1019.5
20260503182426 15 232 4.8 8.0 0.00 0.00 0.00 37 1019.5
20260503181923 15 188 1.6 3.2 0.00 0.00 0.00 38 1019.5
20260503181420 15 219 3.2 4.8 0.00 0.00 0.00 35 1019.6
20260503180915 15 314 1.6 3.2 0.00 0.00 0.00 37 1019.5
20260503180414 16 238 8.0 12.9 0.00 0.00 0.00 37 1019.7
20260503175910 15 200 3.2 8.0 0.00 0.00 0.00 41 1019.5
20260503175409 15 296 6.4 8.0 0.00 0.00 0.00 35 1019.7
20260503174904 15 241 4.8 12.9 0.00 0.00 0.00 35 1019.7
20260503174403 15 233 6.4 9.7 0.00 0.00 0.00 36 1019.7
20260503173903 15 254 8.0 9.7 0.00 0.00 0.00 35 1019.8
20260503173359 15 285 3.2 9.7 0.00 0.00 0.00 39 1020.2
20260503172856 15 228 3.2 11.3 0.00 0.00 0.00 36 1020.1
20260503172354 15 291 4.8 8.0 0.00 0.00 0.00 38 1020.0
20260503171849 15 262 4.8 8.0 0.00 0.00 0.00 35 1020.2
20260503171346 15 247 3.2 12.9 0.00 0.00 0.00 37 1020.4
20260503170844 15 149 6.4 14.5 0.00 0.00 0.00 36 1020.5
20260503170340 15 232 3.2 11.3 0.00 0.00 0.00 36 1020.6
20260503150732 12 180 0.0 3.2 0.00 0.00 0.00 56 1021.8
20260503150228 12 283 1.6 4.8 0.00 0.00 0.00 51 1021.9
20260503140153 10 354 3.2 4.8 0.00 0.00 0.00 51 1021.9
20260503131122 8 216 0.0 3.2 0.00 0.00 0.00 57 1022.0
20260503130620 8 201 0.0 4.8 0.00 0.00 0.00 57 1022.1
20260503130118 8 273 1.6 3.2 0.00 0.00 0.00 58 1022.1
20260503110510 2 62 0.0 0.0 0.00 0.00 0.00 83 1021.3
20260503090402 1 62 0.0 0.0 0.00 0.00 0.00 87 1020.7
20260503081329 2 63 0.0 0.0 0.00 0.00 0.00 87 1020.7
20260503080825 2 62 0.0 0.0 0.00 0.00 0.00 86 1020.7
20260503080323 2 63 0.0 0.0 0.00 0.00 0.00 86 1020.6
20260503072759 1 62 0.0 0.0 0.00 0.00 0.00 85 1020.6
20260503072256 2 62 0.0 0.0 0.00 0.00 0.00 85 1020.6
20260503071752 2 62 0.0 0.0 0.00 0.00 0.00 85 1020.6
20260503071249 2 62 0.0 0.0 0.00 0.00 0.00 85 1020.6
20260503070746 2 62 0.0 0.0 0.00 0.00 0.00 85 1020.6
20260503070244 2 62 0.0 0.0 0.00 0.00 0.00 85 1020.7
20260503060215 2 63 0.0 0.0 0.00 0.00 0.00 83 1021.0
20260503054701 2 62 0.0 0.0 0.00 0.00 0.00 82 1021.0
20260503054159 2 62 0.0 0.0 0.00 0.00 0.00 82 1021.2
20260503053657 2 62 0.0 0.0 0.00 0.00 0.00 82 1021.0
20260503053155 2 62 0.0 0.0 0.00 0.00 0.00 82 1021.2
20260503052651 3 62 0.0 0.0 0.00 0.00 0.00 82 1021.2
20260503052147 3 63 0.0 0.0 0.00 0.00 0.00 82 1021.0
20260503051643 3 62 0.0 0.0 0.00 0.00 0.00 82 1020.9
20260503051141 3 62 0.0 0.0 0.00 0.00 0.00 82 1020.9
20260503050637 3 62 0.0 0.0 0.00 0.00 0.00 81 1021.3
20260503050134 3 62 0.0 0.0 0.00 0.00 0.00 80 1021.0
20260503045632 3 62 0.0 0.0 0.00 0.00 0.00 81 1021.0
20260503045129 3 63 0.0 0.0 0.00 0.00 0.00 80 1021.0
20260503044625 3 62 0.0 0.0 0.00 0.00 0.00 80 1020.9
20260503044123 3 63 0.0 0.0 0.00 0.00 0.00 80 1021.2
20260503043619 3 63 0.0 0.0 0.00 0.00 0.00 80 1021.2
20260503043116 3 63 0.0 0.0 0.00 0.00 0.00 80 1021.0
20260503042613 3 63 0.0 0.0 0.00 0.00 0.00 79 1021.2
20260503042109 3 63 0.0 0.0 0.00 0.00 0.00 79 1021.2
20260503041605 3 63 0.0 0.0 0.00 0.00 0.00 78 1021.2
20260503041103 3 63 0.0 0.0 0.00 0.00 0.00 78 1021.0
20260503040600 3 63 0.0 0.0 0.00 0.00 0.00 78 1021.0
20260503040057 3 63 0.0 0.0 0.00 0.00 0.00 77 1021.2
20260503035554 3 63 0.0 0.0 0.00 0.00 0.00 77 1021.0
20260503035052 3 63 0.0 0.0 0.00 0.00 0.00 77 1021.0
20260503034549 3 63 0.0 0.0 0.00 0.00 0.00 77 1021.0
20260503034046 3 63 0.0 0.0 0.00 0.00 0.00 77 1021.2
20260503033543 3 63 0.0 0.0 0.00 0.00 0.00 77 1021.2
20260503033041 3 63 0.0 0.0 0.00 0.00 0.00 77 1021.2
20260503032539 4 63 0.0 0.0 0.00 0.00 0.00 77 1021.2
20260503032037 4 63 0.0 0.0 0.00 0.00 0.00 77 1021.2
20260503031534 4 63 0.0 0.0 0.00 0.00 0.00 77 1021.0
20260503031032 4 63 0.0 0.0 0.00 0.00 0.00 76 1020.8
20260503030527 4 63 0.0 0.0 0.00 0.00 0.00 76 1021.2
20260503030025 4 63 0.0 0.0 0.00 0.00 0.00 76 1021.0
20260503025521 4 63 0.0 0.0 0.00 0.00 0.00 76 1021.0
20260503025020 5 63 0.0 0.0 0.00 0.00 0.00 76 1021.3
20260503024515 5 63 0.0 0.0 0.00 0.00 0.00 76 1021.0
20260503024013 5 63 0.0 0.0 0.00 0.00 0.00 75 1021.2
20260503023509 5 63 0.0 0.0 0.00 0.00 0.00 75 1021.2
20260503023006 5 63 0.0 0.0 0.00 0.00 0.00 75 1021.2
20260503022502 5 63 0.0 0.0 0.00 0.00 0.00 75 1021.2
20260503021957 5 63 0.0 0.0 0.00 0.00 0.00 74 1021.2
20260503021454 5 63 0.0 0.0 0.00 0.00 0.00 74 1021.0
20260503020951 5 63 0.0 0.0 0.00 0.00 0.00 73 1020.9
20260503020449 5 63 0.0 0.0 0.00 0.00 0.00 72 1020.9
20260503015945 5 63 0.0 0.0 0.00 0.00 0.00 71 1020.8
20260503015442 6 63 0.0 0.0 0.00 0.00 0.00 71 1020.9
20260503014938 6 63 0.0 0.0 0.00 0.00 0.00 70 1020.8
20260503014435 6 63 0.0 0.0 0.00 0.00 0.00 69 1020.9
20260503013933 6 62 0.0 0.0 0.00 0.00 0.00 66 1020.7
20260503013430 6 62 0.0 0.0 0.00 0.00 0.00 64 1020.6
20260503012927 6 62 0.0 0.0 0.00 0.00 0.00 63 1020.5
20260503012425 6 62 0.0 0.0 0.00 0.00 0.00 61 1020.6
20260503011921 7 62 0.0 0.0 0.00 0.00 0.00 60 1020.5
20260503011418 7 62 0.0 0.0 0.00 0.00 0.00 59 1020.5
20260503010915 7 62 0.0 0.0 0.00 0.00 0.00 58 1020.6
20260503010412 7 62 0.0 0.0 0.00 0.00 0.00 57 1020.2
20260503005909 7 62 0.0 0.0 0.00 0.00 0.00 56 1020.5
20260503005407 7 53 0.0 0.0 0.00 0.00 0.00 56 1020.4
20260503004902 8 53 0.0 1.6 0.00 0.00 0.00 55 1020.4
20260503004400 8 71 0.0 1.6 0.00 0.00 0.00 54 1020.3
20260503003857 8 57 1.6 1.6 0.00 0.00 0.00 53 1020.3
20260503003354 8 58 0.0 3.2 0.00 0.00 0.00 53 1020.3
20260503002851 8 35 0.0 1.6 0.00 0.00 0.00 52 1020.1
20260503002348 8 87 0.0 1.6 0.00 0.00 0.00 52 1020.2
20260503001844 8 40 0.0 1.6 0.00 0.00 0.00 52 1020.2
20260503001341 9 39 0.0 1.6 0.00 0.00 0.00 50 1020.1
20260503000838 9 23 0.0 3.2 0.00 0.00 0.00 51 1020.0
20260503000336 9 26 1.6 11.3 0.00 0.00 0.00 49 1019.9
20260502235833 9 31 0.0 8.0 0.00 0.00 0.00 49 1020.0
20260502235330 10 31 1.6 4.8 0.00 0.00 0.00 47 1019.8
20260502234826 10 24 1.6 3.2 0.00 0.00 0.00 48 1019.9
20260502234323 10 42 3.2 3.2 0.00 0.00 0.00 48 1019.9
20260502233820 10 20 1.6 4.8 0.00 0.00 0.00 46 1019.9
20260502233316 10 32 1.6 3.2 0.00 0.00 0.00 47 1019.7
20260502232813 10 349 1.6 4.8 0.00 0.00 0.00 47 1019.8
20260502232310 10 54 1.6 1.6 0.00 0.00 0.00 46 1019.7
20260502231806 10 57 1.6 3.2 0.00 0.00 0.00 45 1019.8
20260502231304 10 29 1.6 3.2 0.00 0.00 0.00 48 1019.7
20260502230802 10 50 0.0 1.6 0.00 0.00 0.00 46 1019.8
20260502230300 10 67 3.2 4.8 0.00 0.00 0.00 45 1019.5
20260502225756 10 36 1.6 4.8 0.00 0.00 0.00 44 1019.6
20260502225253 11 29 1.6 8.0 0.00 0.00 0.00 46 1019.6
20260502224749 11 3 3.2 4.8 0.00 0.00 0.00 41 1019.6
20260502224246 11 347 4.8 4.8 0.00 0.00 0.00 42 1019.6
20260502223744 11 252 1.6 4.8 0.00 0.00 0.00 42 1019.4
20260502223242 11 351 1.6 3.2 0.00 0.00 0.00 42 1019.4
20260502222739 11 32 4.8 4.8 0.00 0.00 0.00 42 1019.2
20260502222236 11 29 1.6 9.7 0.00 0.00 0.00 42 1019.5
20260502221731 11 1 0.0 4.8 0.00 0.00 0.00 42 1019.4
20260502221229 11 339 1.6 4.8 0.00 0.00 0.00 44 1019.3
20260502220725 11 2 1.6 3.2 0.00 0.00 0.00 43 1019.4
20260502220221 11 28 3.2 3.2 0.00 0.00 0.00 45 1019.3
20260502215718 11 32 1.6 3.2 0.00 0.00 0.00 43 1019.4
20260502215215 11 296 0.0 3.2 0.00 0.00 0.00 41 1019.2
20260502214712 11 296 3.2 4.8 0.00 0.00 0.00 41 1019.2
20260502214210 11 39 1.6 9.7 0.00 0.00 0.00 41 1019.1
20260502213707 11 327 0.0 4.8 0.00 0.00 0.00 41 1019.2
20260502213204 11 28 0.0 1.6 0.00 0.00 0.00 42 1019.2
20260502212702 11 327 1.6 3.2 0.00 0.00 0.00 41 1019.2
20260502212200 11 23 1.6 1.6 0.00 0.00 0.00 43 1019.3
20260502211656 11 268 4.8 4.8 0.00 0.00 0.00 41 1019.1
20260502211153 11 243 0.0 1.6 0.00 0.00 0.00 40 1019.1
20260502210650 11 354 0.0 4.8 0.00 0.00 0.00 42 1019.1
20260502210147 11 73 0.0 4.8 0.00 0.00 0.00 41 1018.9
20260502205644 11 22 1.6 3.2 0.00 0.00 0.00 41 1019.1
20260502205141 11 345 0.0 1.6 0.00 0.00 0.00 42 1019.1
20260502204638 11 316 1.6 4.8 0.00 0.00 0.00 40 1019.0
20260502204135 12 307 3.2 3.2 0.00 0.00 0.00 41 1019.2
20260502203632 12 25 3.2 4.8 0.00 0.00 0.00 41 1019.1
20260502203130 11 312 3.2 4.8 0.00 0.00 0.00 40 1019.2
20260502202625 11 33 0.0 3.2 0.00 0.00 0.00 41 1019.2
20260502202123 12 44 1.6 4.8 0.00 0.00 0.00 38 1019.3
20260502201620 11 273 3.2 3.2 0.00 0.00 0.00 41 1019.2
20260502201116 11 312 0.0 3.2 0.00 0.00 0.00 40 1019.3
20260502200612 11 25 3.2 4.8 0.00 0.00 0.00 40 1019.4
20260502200110 11 296 0.0 3.2 0.00 0.00 0.00 39 1019.4
20260502195608 11 292 4.8 4.8 0.00 0.00 0.00 40 1019.4
20260502195103 11 356 1.6 1.6 0.00 0.00 0.00 40 1019.5
20260502194600 11 37 1.6 4.8 0.00 0.00 0.00 39 1019.5
20260502194056 12 28 0.0 3.2 0.00 0.00 0.00 42 1019.5
20260502193554 11 82 0.0 4.8 0.00 0.00 0.00 43 1019.5
20260502193050 12 15 1.6 3.2 0.00 0.00 0.00 40 1019.4
20260502192546 12 335 1.6 3.2 0.00 0.00 0.00 41 1019.6
20260502192044 12 53 3.2 4.8 0.00 0.00 0.00 42 1019.6
20260502191540 11 195 1.6 3.2 0.00 0.00 0.00 39 1019.6
20260502191038 11 344 1.6 3.2 0.00 0.00 0.00 43 1019.6
20260502190536 11 19 4.8 8.0 0.00 0.00 0.00 40 1019.6
20260502190032 12 51 1.6 3.2 0.00 0.00 0.00 40 1019.8
20260502185527 11 140 4.8 8.0 0.00 0.00 0.00 40 1019.9
20260502185024 11 30 1.6 3.2 0.00 0.00 0.00 41 1019.9